GFSSGP_sfc_thetae_114.txt.gz
Theta_e
315 309 308 305 296 295 290 293 297 299 298 304 309 306 306 310 307 301 327 333 338 340 343 344 348 347 345 345 345 344 344 342 341 341 342 341 341 339 339 342 340 344 342 341 341 342 342 340 339
309 309 308 299 292 289 289 292 297 300 307 310 307 308 309 307 317 323 325 339 340 341 342 344 345 346 344 344 344 343 343 343 341 340 339 338 338 337 338 338 339 341 341 340 340 341 340 339 339
309 307 303 295 290 289 289 294 298 301 309 299 306 310 310 311 317 323 329 338 338 338 341 342 344 346 344 344 343 342 343 345 342 339 340 337 337 337 336 338 339 339 339 340 340 341 339 338 337
306 306 300 293 291 293 292 297 300 300 299 307 307 307 313 321 323 326 337 336 336 336 339 342 346 346 344 344 343 342 343 343 343 339 337 338 335 337 336 335 336 336 338 339 339 337 338 338 336
306 303 294 291 292 292 292 301 301 299 298 302 304 303 309 320 329 334 334 335 333 333 337 340 344 345 345 344 342 343 341 341 340 338 336 336 335 334 335 335 336 336 336 336 337 336 337 337 334
302 301 292 288 290 294 296 302 300 298 299 304 308 309 310 321 329 330 332 331 333 333 336 338 337 340 343 343 343 342 341 340 340 339 336 335 336 334 335 334 334 334 334 335 335 334 334 334 332
300 299 292 289 291 293 298 301 297 298 302 301 312 306 308 321 325 329 329 330 331 334 334 333 336 338 336 338 339 340 340 339 339 339 339 337 337 337 336 335 334 334 334 334 334 333 332 332 331
301 299 294 291 291 291 295 299 299 299 297 308 312 305 307 317 326 328 328 327 329 331 330 330 331 334 336 334 332 334 336 337 337 336 332 331 333 334 333 331 333 333 333 333 332 331 331 330 329
303 296 293 293 293 294 294 294 296 298 303 302 305 310 313 323 329 327 326 327 328 330 328 327 327 329 333 333 328 329 331 332 331 328 325 323 324 326 326 328 333 334 333 331 330 329 327 325 324
301 295 295 298 296 294 294 294 296 298 299 301 305 312 320 326 326 324 323 323 324 325 327 328 326 327 332 335 330 328 328 326 324 323 320 321 321 323 324 324 328 330 329 331 329 327 324 320 316
298 297 299 300 297 296 296 294 296 296 295 301 306 311 320 324 324 324 324 325 323 324 326 326 326 326 330 333 331 328 324 322 322 321 320 319 319 318 319 320 319 319 318 318 318 316 316 315 314
298 299 300 304 299 296 295 297 294 297 298 299 309 317 320 322 323 324 323 323 320 321 323 324 325 326 326 331 331 330 323 321 319 319 320 318 316 315 315 316 315 315 314 314 313 313 314 313 313
297 298 299 299 298 295 297 296 295 295 295 304 315 317 319 321 322 324 325 323 322 320 322 323 323 324 325 327 329 329 325 321 320 319 320 318 316 315 314 314 313 313 313 313 312 312 312 312 312
299 298 298 298 296 295 296 294 294 296 302 310 314 315 316 320 321 321 322 323 323 322 322 323 324 324 324 324 327 328 328 323 322 320 320 319 317 316 315 314 314 313 312 313 313 313 311 311 310
300 295 297 298 295 294 295 292 293 294 301 309 312 313 315 317 318 320 323 324 325 324 324 324 324 324 324 323 324 325 325 325 323 322 321 320 318 316 316 314 313 314 314 313 313 312 311 309 310
298 297 292 295 294 294 294 288 296 295 300 305 309 309 312 314 317 318 321 324 325 325 324 325 326 325 324 324 324 324 324 324 324 323 323 321 319 317 315 315 315 315 314 313 312 310 309 308 308
297 291 292 295 295 293 292 289 296 294 298 299 306 308 310 312 313 316 318 321 323 325 325 325 326 324 325 324 324 324 324 323 324 323 324 323 323 320 317 315 315 314 313 312 311 309 308 307 307
289 293 293 294 294 291 290 289 294 291 294 297 302 306 308 310 314 318 317 318 320 325 326 327 327 326 326 325 324 325 326 327 328 327 328 328 326 323 320 319 318 315 312 311 309 309 307 307 306
290 291 295 290 297 290 291 292 294 293 290 290 294 300 305 308 314 314 315 316 318 321 324 326 326 326 326 323 324 325 326 328 328 328 328 327 327 325 322 320 319 317 314 313 313 311 310 309 307
289 288 287 291 290 289 288 288 292 291 291 291 293 294 298 301 301 300 307 312 315 318 323 325 326 327 327 327 327 324 322 323 326 329 329 328 327 326 324 321 320 318 316 315 314 311 310 309 308
287 287 286 288 287 288 285 287 290 292 290 291 291 292 292 296 300 295 295 299 309 314 319 323 326 327 327 328 324 321 322 321 326 327 328 328 328 327 325 324 322 320 318 317 315 313 311 310 308
286 290 289 288 286 281 284 279 287 291 289 290 292 290 292 292 293 293 294 293 299 310 313 321 325 326 327 327 326 326 325 322 321 322 324 327 328 328 327 326 324 322 319 316 318 317 315 313 311
288 292 290 289 286 281 280 279 283 285 286 289 291 291 292 293 294 293 293 293 296 304 306 315 320 323 324 326 326 325 323 323 322 326 324 323 325 326 326 325 323 321 320 319 318 315 314 313 313
292 289 288 285 283 278 282 281 280 284 288 287 290 292 293 294 291 292 292 296 298 299 299 301 312 317 319 323 324 324 323 321 320 322 320 321 323 323 323 323 323 322 321 319 318 316 314 313 312
290 286 279 277 275 278 279 278 286 287 287 288 290 292 292 290 290 292 295 296 298 299 299 299 299 302 309 321 323 323 322 322 321 322 322 321 320 319 321 321 320 319 319 318 317 315 313 312 311
286 287 279 271 272 278 278 278 286 288 290 288 289 289 289 289 291 293 295 296 297 299 300 298 297 297 298 301 318 324 323 321 320 318 319 317 316 315 315 313 312 312 312 312 310 307 306 304 302
283 282 285 279 269 273 277 280 285 287 288 288 289 290 290 290 292 294 295 296 297 299 301 300 299 300 301 301 302 314 320 320 317 314 313 312 310 307 306 304 303 302 302 301 298 297 295 295 294
286 289 280 279 270 268 276 277 282 282 288 288 288 290 290 291 292 294 295 295 296 297 298 299 300 300 299 300 302 308 311 313 310 308 306 304 302 302 299 297 296 295 294 293 292 291 291 290 290
282 282 282 283 279 274 274 279 283 286 288 289 290 291 290 292 292 293 294 294 295 295 295 296 296 296 296 296 298 301 301 301 301 300 299 296 295 294 293 292 291 290 290 289 289 288 288 287 287
284 286 286 281 278 277 277 280 284 285 287 288 289 291 292 292 293 292 293 292 292 294 294 294 293 294 293 292 294 295 296 297 296 294 293 292 291 291 291 290 289 288 287 287 287 286 286 285 285

GFSSGP_sfc_thetae_117.txt.gz
Theta_e
319 311 311 309 299 298 295 299 303 303 303 311 312 311 312 314 311 305 330 336 340 343 346 346 346 347 345 346 345 345 344 342 344 343 343 341 341 341 341 342 344 344 342 341 342 341 340 339 338
311 311 311 304 295 291 293 298 301 304 312 312 311 313 314 313 321 325 330 338 342 343 345 345 344 346 345 344 343 344 344 343 340 339 339 339 339 340 340 340 342 342 341 340 341 340 340 338 337
312 310 306 298 293 291 292 298 302 306 311 305 311 316 316 316 322 327 334 341 342 343 345 343 344 345 344 343 343 344 344 342 340 341 339 338 337 337 338 339 341 342 340 340 342 339 338 337 335
309 308 303 296 295 298 297 301 303 307 306 309 313 312 318 324 326 330 336 341 341 342 344 343 344 345 344 343 344 344 344 343 340 339 337 337 336 336 337 338 340 341 340 338 338 339 337 335 334
308 304 296 294 296 298 297 303 304 302 303 306 309 311 316 324 330 335 337 339 338 340 343 344 343 344 344 343 343 343 343 342 340 337 338 335 335 334 336 336 336 337 338 337 338 338 336 334 333
305 303 295 292 294 298 300 304 304 302 304 309 312 314 318 327 329 332 337 336 338 338 341 343 337 340 342 343 343 342 342 341 339 337 337 337 335 336 335 334 335 336 336 336 336 335 334 333 332
304 301 294 293 294 296 302 303 302 302 305 307 315 311 316 323 329 333 334 335 336 338 339 340 342 339 335 338 338 339 340 340 339 338 338 337 336 336 337 335 334 335 335 334 334 333 333 332 331
302 302 299 295 295 295 299 302 302 304 303 313 315 307 314 322 329 331 332 332 333 335 336 337 339 340 339 339 332 334 336 337 337 334 332 332 332 332 332 331 334 334 334 333 332 332 331 330 329
306 297 295 297 295 298 298 299 300 302 308 307 311 313 316 326 330 329 327 327 328 330 333 335 336 337 337 335 331 330 331 331 330 329 325 327 333 331 330 329 333 334 333 331 330 328 327 325 325
302 298 297 300 299 297 298 298 299 300 304 305 311 317 322 327 327 324 322 322 323 325 329 332 334 334 336 334 332 334 333 332 330 329 327 329 330 330 329 326 327 329 329 331 329 327 323 322 324
302 298 300 300 300 299 298 298 299 299 299 304 307 313 320 324 325 322 323 323 323 325 328 329 331 334 335 334 332 331 330 329 328 326 326 326 326 328 329 329 327 327 320 324 323 323 322 321 321
299 301 300 304 300 298 297 299 297 298 302 302 308 318 321 322 322 323 323 324 324 323 325 328 330 331 333 334 332 331 328 327 326 325 324 324 324 324 325 325 324 324 323 323 322 322 321 320 319
299 299 299 300 298 298 298 297 297 297 299 306 313 319 321 322 323 325 326 327 325 323 324 325 329 329 330 331 332 331 328 326 325 325 325 323 323 323 322 322 322 322 322 321 322 321 320 320 318
301 298 298 300 298 298 297 295 296 299 301 310 314 316 320 322 323 324 325 324 323 324 324 326 327 328 328 328 330 329 330 328 326 324 325 324 324 323 322 321 321 321 321 321 322 321 321 319 318
298 297 298 302 298 297 297 295 294 297 303 308 313 313 316 320 322 323 325 325 326 325 324 325 327 327 328 328 328 328 328 328 327 326 325 325 324 323 322 321 321 321 321 320 321 320 319 318 317
296 298 293 297 297 297 298 295 298 298 300 303 310 311 313 315 320 324 325 327 327 326 324 325 326 326 326 327 328 328 328 329 329 328 327 325 324 323 322 322 321 322 321 321 320 319 319 318 317
296 289 292 294 295 294 294 292 297 296 297 297 304 309 311 313 315 318 322 326 326 327 326 325 326 326 326 326 326 327 328 329 329 329 329 327 324 322 321 321 321 322 321 321 319 318 317 317 317
290 289 291 291 295 292 291 290 294 295 294 296 297 306 309 312 315 318 319 322 326 327 328 328 327 326 326 327 326 326 326 327 327 327 328 329 327 324 321 321 319 318 319 319 317 317 315 315 315
293 294 293 291 298 293 292 294 297 297 293 293 294 298 307 310 315 317 318 319 321 325 326 327 327 327 326 325 325 325 325 327 328 328 328 329 328 326 323 322 320 319 318 317 315 315 314 314 312
293 292 291 294 292 291 291 290 293 295 295 295 295 294 299 306 308 311 315 317 319 321 325 327 327 328 327 327 328 328 329 329 330 330 329 329 328 327 325 323 322 320 318 317 316 314 313 313 312
288 287 286 289 288 289 286 287 289 294 293 293 293 295 295 299 304 307 305 312 316 318 321 325 327 328 328 329 327 324 325 327 327 328 329 328 329 327 326 324 323 322 320 319 317 316 314 315 311
287 291 290 288 287 281 285 280 286 291 295 291 294 293 294 295 298 301 301 301 308 315 319 323 326 327 328 329 327 326 325 324 327 329 330 329 330 328 327 326 325 323 321 320 319 319 317 314 312
289 291 290 289 286 283 282 279 282 286 290 295 295 294 295 295 296 297 298 301 300 305 313 319 323 326 327 328 328 327 326 327 327 326 327 325 327 329 328 327 325 323 322 320 322 317 315 315 315
291 290 288 285 286 280 283 281 281 285 288 289 292 294 296 296 295 296 294 294 295 298 305 312 318 322 325 327 328 327 327 325 324 325 324 324 323 326 326 325 325 323 322 321 320 318 316 315 314
291 289 281 279 279 278 279 280 288 287 288 289 292 293 294 296 295 294 293 295 296 298 301 304 312 317 321 324 326 326 327 325 325 325 325 322 322 322 323 323 322 322 321 319 318 316 314 313 311
289 289 281 275 273 277 279 278 285 289 292 290 289 289 290 291 291 292 294 296 297 298 300 301 302 312 317 322 324 326 326 325 325 324 322 322 321 321 320 317 316 315 314 313 311 308 305 305 304
284 286 288 281 271 274 278 281 286 287 288 287 288 289 290 291 292 293 294 296 297 299 301 301 299 299 302 311 318 323 324 324 321 320 320 318 315 312 311 310 308 306 305 304 303 301 299 298 298
287 290 282 281 273 270 276 277 282 283 286 288 288 289 291 292 292 294 295 296 297 299 301 301 300 300 301 301 302 310 317 321 318 315 313 312 308 307 305 303 300 299 297 297 297 295 294 294 293
283 284 283 284 280 275 272 278 283 286 288 289 290 288 290 292 292 294 295 296 297 298 299 300 300 299 300 300 302 305 308 310 310 310 308 306 303 300 298 297 295 294 293 293 293 292 291 290 290
285 284 286 280 277 277 277 281 286 286 286 286 287 288 289 292 292 293 295 295 295 296 297 297 297 298 297 297 301 302 301 303 303 302 300 300 297 295 294 293 291 291 290 290 290 289 289 288 288

GFSSGP_sfc_thetae_120.txt.gz
Theta_e
323 319 322 320 307 308 302 304 309 307 307 313 316 315 316 319 315 311 335 339 341 343 345 345 347 347 346 346 345 345 346 345 345 344 342 343 342 343 342 343 344 344 343 342 341 340 339 338 337
318 317 323 316 304 300 301 306 307 309 315 318 318 319 317 316 326 327 332 339 342 343 344 344 344 346 345 346 345 344 343 343 341 341 341 341 342 342 342 342 344 343 341 341 340 339 338 336 335
316 317 315 310 304 300 300 304 309 314 313 312 315 321 320 320 325 329 337 340 342 343 343 343 343 345 345 344 345 344 343 338 341 338 338 339 338 339 341 342 342 342 342 340 339 337 335 334 334
314 318 313 305 300 302 302 307 310 313 312 312 317 315 324 329 329 334 339 341 340 342 343 342 344 344 344 345 345 344 343 339 341 338 337 336 338 338 341 342 342 340 339 340 338 336 335 334 333
316 314 306 302 301 304 305 307 313 310 309 313 314 315 321 330 333 337 337 340 341 341 342 343 343 343 343 345 345 344 343 341 340 338 337 336 336 337 337 338 339 338 338 338 337 335 334 333 332
312 312 304 300 299 304 306 311 311 309 310 313 316 319 322 331 334 334 338 339 341 340 342 343 336 339 341 343 343 342 341 340 339 339 338 335 336 336 335 335 337 337 336 336 336 334 333 332 331
313 308 303 301 300 302 307 311 309 309 310 311 321 316 322 326 333 335 338 340 340 340 341 342 340 338 336 338 339 340 339 339 338 338 338 337 336 336 335 336 336 336 335 334 334 333 332 331 329
312 312 300 299 301 300 308 309 308 310 309 318 320 310 318 329 332 335 337 338 337 337 340 340 342 340 338 339 331 334 336 337 336 335 333 331 332 332 332 332 335 335 334 333 332 332 331 329 328
310 308 302 304 300 302 305 307 306 309 313 316 318 317 322 332 332 331 331 332 333 333 337 339 341 340 338 337 333 330 331 331 329 329 327 329 333 332 330 330 333 333 333 330 329 328 327 326 325
309 307 307 308 304 303 303 305 306 306 310 311 314 320 329 331 329 326 326 327 327 329 332 337 338 339 338 335 336 335 335 335 334 334 335 335 334 332 330 326 326 328 330 330 328 326 324 326 328
307 307 308 305 303 303 303 303 305 306 305 311 311 318 326 328 327 328 326 328 327 330 331 336 337 338 337 336 336 335 334 333 333 333 334 335 334 332 332 331 329 329 322 327 327 328 327 327 327
302 306 307 306 305 302 303 304 302 305 308 307 312 321 326 326 326 326 326 327 326 328 330 332 336 334 337 338 336 335 332 332 330 331 332 333 333 332 331 330 329 329 330 328 328 328 327 325 324
305 305 304 307 303 303 303 302 302 303 308 308 310 321 325 327 327 328 328 328 327 327 328 329 335 333 334 334 334 333 333 331 330 330 329 329 331 331 330 329 329 328 327 327 327 326 326 325 324
310 306 304 302 302 303 305 304 302 306 307 307 313 319 323 326 327 328 328 326 327 328 328 330 333 335 332 332 332 332 335 333 330 330 329 328 329 329 329 328 327 327 327 328 328 327 326 326 325
306 303 303 304 302 303 303 304 300 309 305 306 311 316 321 324 327 327 329 328 329 330 329 329 332 333 332 330 333 331 331 334 332 329 330 330 330 329 329 328 327 327 328 327 328 328 327 326 324
305 305 301 307 303 303 303 301 308 308 304 307 309 313 318 322 325 328 330 329 330 332 330 329 330 331 332 331 331 331 331 332 333 332 331 331 331 330 329 328 327 328 328 328 327 327 326 325 324
302 300 300 304 302 300 299 302 305 305 304 307 308 310 315 318 323 327 329 331 332 333 332 330 329 329 330 331 332 331 332 333 334 334 333 331 331 330 330 329 329 328 328 327 327 326 325 325 325
297 299 298 301 301 297 297 297 303 303 301 304 306 307 312 316 319 324 328 331 332 334 335 333 330 329 330 331 331 331 331 331 333 333 333 333 333 329 325 324 323 323 324 327 326 325 323 324 323
302 299 299 300 303 300 301 300 304 307 303 303 304 304 306 312 319 323 325 329 331 333 333 333 331 330 329 328 327 328 327 330 331 331 332 333 334 331 326 326 324 323 322 323 325 320 322 321 322
301 299 297 299 299 298 302 301 305 306 305 306 308 308 305 306 314 319 323 325 327 330 332 333 333 333 331 330 330 330 330 332 331 331 330 330 330 329 327 326 325 323 322 323 322 320 321 320 321
297 297 294 295 293 294 293 294 298 302 302 304 305 308 311 307 307 314 319 322 325 326 329 331 333 334 333 332 332 331 333 333 331 332 332 331 331 330 329 328 326 325 324 323 323 321 319 321 321
292 297 294 290 291 291 292 289 297 300 300 301 301 303 303 304 305 309 314 318 323 326 328 330 332 333 333 334 332 330 328 327 330 330 331 332 331 330 332 330 328 328 326 324 322 320 323 319 316
295 296 294 293 291 291 293 288 295 295 294 298 302 303 305 306 304 304 308 313 318 322 326 328 329 331 333 333 333 331 330 331 333 333 333 334 333 331 332 332 332 328 326 324 322 320 320 318 318
294 294 294 292 292 285 292 290 292 296 297 300 301 303 304 304 304 304 306 308 311 314 321 325 326 328 331 332 333 332 331 331 331 331 331 332 331 330 331 332 331 329 326 324 324 322 319 318 317
294 291 284 282 282 284 288 288 292 298 297 297 298 300 302 304 305 304 303 301 303 306 309 317 322 324 328 331 331 332 332 332 331 331 332 331 329 326 328 330 327 327 326 324 322 320 317 316 315
291 292 285 280 280 285 283 285 293 298 300 300 299 301 300 299 301 302 303 303 303 304 306 307 312 319 325 328 330 331 332 332 332 332 332 332 329 328 327 328 326 324 321 318 315 312 311 311 312
290 287 292 284 278 282 286 289 294 296 296 297 297 298 299 301 301 301 301 301 302 303 304 306 307 311 318 323 328 329 329 329 330 331 332 330 329 324 322 321 317 316 313 310 308 305 303 305 306
294 296 286 287 281 280 285 285 289 291 294 297 298 299 300 300 300 301 302 302 303 303 304 306 307 308 314 319 323 324 326 326 327 328 327 326 322 316 314 312 310 307 305 303 302 300 300 300 299
289 289 289 290 287 283 282 287 297 295 297 296 298 297 298 299 300 301 302 303 303 304 305 306 306 306 307 309 316 318 318 323 324 323 322 320 316 313 310 307 305 304 300 299 299 298 297 296 294
293 290 290 286 283 285 284 286 294 295 295 294 296 297 298 298 299 300 301 302 302 303 305 306 306 305 305 306 307 309 315 312 313 313 312 309 308 306 305 301 300 299 298 297 297 294 294 293 293

GFSSGP_sfc_thetae_123.txt.gz
Theta_e
328 324 324 322 309 308 303 305 310 308 309 315 320 317 317 321 317 313 335 338 340 340 343 345 347 347 345 344 346 347 348 346 345 344 344 343 343 344 345 345 345 344 341 339 339 339 338 337 336
322 322 322 317 307 302 303 308 307 310 316 319 319 318 317 319 327 329 331 338 341 342 342 342 344 346 345 344 344 345 345 344 343 342 342 341 344 344 342 343 344 344 340 339 338 337 336 335 335
319 320 316 312 308 303 302 307 311 315 315 316 315 321 320 321 328 330 336 339 341 341 340 343 344 345 344 344 344 342 343 342 340 340 340 339 340 343 342 343 343 343 339 338 337 336 335 335 335
319 320 316 307 304 304 304 308 313 312 312 315 316 314 325 331 330 334 338 338 340 340 340 341 344 345 344 344 344 342 339 342 339 338 339 339 339 341 342 342 341 340 339 337 336 335 334 334 334
321 315 306 306 306 306 307 312 315 311 311 314 316 314 321 331 335 337 337 338 338 338 340 340 342 344 344 345 344 342 337 339 339 337 337 336 336 339 340 341 338 339 338 337 335 334 333 333 333
315 314 303 304 305 306 308 313 314 311 312 313 313 317 323 334 334 335 338 337 339 338 339 339 336 339 342 343 343 342 341 340 339 338 334 336 337 336 335 338 337 337 337 336 335 333 332 330 329
315 308 303 307 304 303 308 315 312 310 311 311 318 315 324 330 333 335 336 337 338 338 338 338 337 336 336 338 339 339 339 339 338 338 338 336 332 333 336 338 337 336 335 334 334 332 331 329 327
317 313 303 305 303 303 310 312 312 312 311 320 322 311 317 330 334 336 337 336 336 336 337 338 337 336 336 339 332 334 336 336 336 335 333 331 331 331 332 332 335 335 333 333 332 331 330 328 327
316 308 305 305 301 305 311 309 311 313 314 317 319 317 326 334 334 333 332 331 333 334 334 339 337 335 334 334 333 331 331 331 330 330 327 327 330 330 332 329 333 333 331 330 329 328 327 326 325
313 309 311 314 310 305 310 310 310 310 312 312 316 322 331 333 330 329 327 328 330 330 332 338 337 336 335 332 333 334 334 332 333 333 333 333 331 331 330 326 327 329 329 329 327 325 326 326 327
313 308 313 309 307 308 306 307 308 308 307 311 312 318 329 329 327 328 329 329 328 331 332 333 337 336 336 333 333 333 333 333 332 333 334 334 331 330 329 328 327 328 323 326 327 327 327 327 327
309 313 312 308 306 305 305 307 305 307 310 310 312 320 327 327 329 329 327 328 328 328 331 334 336 336 335 335 334 333 331 331 330 331 333 333 332 331 330 328 328 329 328 326 327 327 326 325 324
310 311 309 308 307 308 308 307 307 307 310 311 311 318 324 327 329 329 329 329 329 327 329 332 335 334 336 335 334 333 331 330 329 330 330 332 331 331 330 329 328 326 326 326 325 325 324 324 323
313 310 307 306 305 306 305 309 306 312 310 309 311 314 321 325 327 329 327 327 328 327 328 331 333 335 334 333 333 333 333 331 330 329 328 329 331 331 329 328 327 327 326 326 325 325 325 324 324
310 307 307 306 306 306 308 306 305 312 314 310 311 312 318 322 326 327 329 328 328 328 328 329 332 333 333 332 331 333 334 333 330 329 330 328 330 330 329 328 328 327 327 327 327 327 326 325 324
307 308 302 310 307 306 307 302 312 316 313 310 312 312 314 320 324 327 330 330 329 329 328 328 330 332 332 332 332 333 332 333 333 331 330 330 331 331 330 329 327 329 328 328 327 327 326 325 325
307 301 303 306 309 308 304 304 311 313 312 310 313 313 312 316 321 326 329 330 331 331 331 328 329 330 331 332 332 331 331 331 333 333 331 330 331 331 330 330 330 329 328 328 327 327 326 325 326
299 300 302 302 305 304 303 303 308 308 303 306 310 312 311 313 316 323 327 329 331 332 332 332 330 330 330 332 331 331 331 331 332 333 332 331 331 331 331 330 328 327 328 328 328 326 327 325 324
304 302 301 304 306 302 303 304 306 310 309 306 308 309 309 310 316 320 324 328 330 331 332 332 331 330 330 330 329 329 328 330 331 333 333 333 332 332 330 329 327 323 324 325 327 326 324 324 325
303 301 300 304 303 301 303 303 307 309 310 311 311 311 312 312 311 316 321 325 328 329 332 333 333 332 331 330 330 329 329 330 332 332 333 334 334 334 331 329 326 324 324 325 325 323 323 323 324
301 300 300 300 298 299 298 297 301 305 307 308 310 311 313 314 313 312 318 323 326 328 330 332 334 334 333 332 331 330 331 331 331 332 332 332 333 332 328 328 327 325 324 323 324 323 321 320 322
296 303 301 297 296 293 297 290 299 303 303 305 307 307 309 311 314 313 314 320 324 326 331 332 333 334 335 334 332 330 328 328 331 332 333 333 332 332 331 330 330 328 326 325 324 323 321 322 321
299 301 299 298 295 295 295 291 296 301 300 302 304 307 307 309 312 313 311 316 322 326 328 331 332 333 334 335 334 332 331 332 333 333 333 334 334 332 331 330 331 330 329 328 325 320 320 321 320
300 297 296 295 295 288 294 293 294 298 301 303 306 306 307 308 309 312 313 312 318 324 328 329 330 330 333 334 335 333 332 332 331 332 332 333 333 331 331 332 332 332 330 327 324 322 321 319 318
298 294 286 284 284 285 292 292 295 301 302 301 302 303 305 306 307 308 310 310 310 315 323 326 328 327 330 332 333 333 333 333 332 332 332 332 332 331 330 331 331 331 331 328 326 323 321 318 316
295 295 288 282 283 287 287 287 294 301 302 303 304 305 305 305 305 305 307 311 309 309 314 319 323 325 327 330 331 333 333 333 333 333 333 333 333 332 331 330 330 330 328 326 324 320 316 315 314
291 289 296 286 281 284 289 292 297 300 299 301 301 303 303 304 305 305 305 305 307 308 309 310 313 318 323 327 329 331 332 332 331 333 334 333 334 331 329 329 327 326 323 319 316 311 308 310 310
295 297 287 289 283 281 287 290 291 295 297 299 300 302 303 305 303 304 305 306 307 306 307 309 309 309 314 320 326 328 330 331 332 332 332 332 333 328 327 325 322 317 313 311 308 304 303 303 302
290 291 292 293 290 285 283 288 299 299 300 300 301 300 300 301 302 303 304 305 306 306 307 307 308 308 309 312 318 324 327 329 329 328 328 329 328 323 321 318 313 309 306 305 303 301 299 299 296
296 293 293 288 285 289 288 288 299 299 300 300 299 299 301 302 303 303 304 304 305 305 306 306 307 308 308 310 313 319 322 323 324 324 323 321 320 318 316 312 309 306 304 303 301 298 297 296 295

GFSSGP_sfc_thetae_126.txt.gz
Theta_e
324 323 321 318 305 304 300 302 306 305 306 310 316 313 316 319 317 309 330 337 339 339 344 345 347 347 345 346 347 348 346 346 346 345 344 344 346 346 346 345 343 339 338 338 337 338 337 337 338
317 320 319 314 303 299 298 304 305 309 312 316 316 315 314 316 325 325 327 338 340 340 342 342 344 346 345 346 347 347 347 345 344 344 342 343 345 345 340 343 343 340 337 337 337 337 336 336 337
323 318 312 309 304 298 298 304 309 311 312 312 311 316 318 319 325 326 333 339 339 339 340 342 344 345 345 345 343 344 343 344 342 342 339 340 339 344 344 344 343 340 336 337 336 336 336 336 335
317 316 312 304 303 300 302 307 311 308 308 312 311 314 323 328 327 331 335 339 338 337 340 341 343 345 345 345 342 340 342 339 341 341 339 340 342 344 342 341 342 339 337 336 335 335 335 334 334
319 312 304 302 304 302 304 310 312 307 307 309 311 314 318 328 333 334 333 338 336 336 337 339 343 344 344 343 342 339 339 339 337 338 339 338 341 341 341 339 340 338 336 335 334 333 334 331 329
313 311 302 299 303 303 305 309 310 306 308 308 308 317 320 330 331 333 334 336 337 335 336 337 335 339 342 343 341 340 340 340 335 336 337 335 336 335 338 338 338 337 335 335 333 332 330 328 327
312 308 303 304 304 301 305 310 307 306 307 307 313 314 322 327 331 333 334 336 336 337 335 334 335 335 335 338 337 337 337 337 335 335 336 335 333 337 337 338 337 335 335 334 332 331 330 328 327
312 311 303 302 302 301 307 309 309 308 308 314 316 309 316 327 332 332 332 333 334 335 335 332 332 335 335 334 332 333 334 335 335 333 332 330 329 330 333 332 335 334 333 333 332 330 329 328 326
317 305 301 302 301 303 308 306 307 308 311 311 313 316 326 330 331 331 329 331 330 332 333 333 331 329 333 334 329 329 330 330 330 329 327 325 326 328 330 329 333 332 332 330 329 328 328 327 325
309 303 306 310 308 304 307 307 306 305 308 308 313 323 330 329 328 327 325 325 325 325 332 334 332 328 328 333 331 331 329 328 328 328 325 327 325 327 327 324 327 329 329 329 327 327 327 324 320
310 305 312 308 305 305 307 305 305 304 304 307 310 321 326 326 326 327 325 326 325 326 327 334 333 331 328 327 328 329 328 327 328 327 328 327 325 323 324 322 322 321 320 321 324 322 322 321 321
308 311 311 307 306 304 303 305 302 303 302 307 310 323 326 324 325 325 325 326 324 326 327 332 334 333 329 328 328 327 327 327 326 327 328 327 324 324 322 322 322 321 320 319 320 320 319 319 319
310 312 309 306 305 304 306 302 301 301 304 307 308 322 324 324 325 327 327 326 324 325 326 328 332 333 331 329 328 327 326 325 325 325 327 328 326 324 323 322 321 320 320 320 318 319 318 318 318
311 310 308 305 304 304 303 304 303 307 305 305 307 314 321 323 326 326 326 324 324 324 326 328 331 332 332 329 328 327 326 325 324 324 325 326 326 325 323 322 321 319 319 319 319 318 318 318 318
312 304 304 303 303 303 304 301 302 307 306 306 307 307 314 320 324 325 325 323 325 324 326 327 328 332 331 331 329 328 328 326 325 324 324 323 325 325 323 322 321 320 320 321 321 320 319 318 318
305 306 298 304 305 303 304 298 308 310 307 307 306 305 310 315 320 323 324 324 325 324 325 326 330 329 330 330 330 329 327 327 326 325 325 324 325 325 323 322 322 322 322 321 320 320 319 318 318
303 297 300 304 307 302 301 298 306 309 308 307 305 307 307 311 316 320 324 325 325 325 325 324 327 327 328 328 328 328 328 327 327 326 325 325 326 326 324 323 323 323 322 321 321 320 319 318 318
297 299 302 301 303 303 297 298 303 300 301 302 304 307 308 308 313 318 322 324 326 325 326 325 326 327 327 328 328 326 325 326 326 327 325 326 327 327 325 325 324 322 322 322 321 320 320 318 317
303 301 301 303 304 300 299 299 303 305 301 300 302 303 303 305 310 315 320 322 324 326 327 327 324 325 327 326 325 324 323 324 325 326 327 326 326 327 325 324 322 321 320 323 323 320 319 318 317
301 299 298 301 301 299 298 298 302 305 305 305 304 304 306 307 305 311 316 319 323 324 326 327 327 325 326 326 327 326 325 326 326 326 327 327 327 327 326 323 322 319 319 321 321 320 318 316 316
299 297 297 297 298 296 294 292 296 301 304 305 307 308 309 308 308 306 312 318 321 323 325 327 328 327 327 326 326 325 324 324 324 325 326 327 327 328 327 325 323 321 320 319 321 318 316 314 315
296 302 301 296 293 288 293 283 292 296 298 302 304 302 305 307 309 310 308 314 319 322 324 327 329 329 329 327 325 323 322 321 324 326 327 327 327 328 327 326 324 323 321 319 320 319 318 318 315
298 302 298 295 292 291 291 286 290 295 294 298 300 302 303 304 306 307 309 313 318 321 324 325 328 329 330 329 327 325 323 324 325 327 327 327 327 328 328 326 325 324 323 321 320 317 317 318 318
301 298 296 292 290 284 290 289 288 292 296 297 299 300 301 302 303 305 308 307 313 317 320 324 325 327 329 330 329 327 325 325 326 327 327 328 328 327 327 328 326 326 325 323 322 319 319 319 318
297 292 282 282 281 281 288 287 291 296 297 296 296 297 297 297 300 301 302 304 304 313 318 322 323 324 326 328 329 328 328 327 326 327 327 327 327 327 327 327 326 326 326 325 323 320 319 318 318
294 292 283 278 279 281 284 282 289 298 297 297 300 298 297 296 298 297 297 300 302 305 311 319 320 323 324 326 328 330 330 329 329 328 329 329 329 328 328 327 327 327 327 324 322 320 318 317 316
292 290 293 283 277 279 283 288 294 296 296 295 295 296 297 298 298 301 302 298 298 301 304 310 315 317 320 323 325 327 329 329 329 329 329 329 330 329 328 327 326 326 324 322 320 318 313 314 313
293 295 286 287 278 275 282 283 286 291 294 296 296 296 297 297 297 297 297 298 299 298 300 302 304 306 310 316 320 324 326 328 329 329 327 328 329 326 325 324 324 321 319 316 313 309 308 308 307
289 289 290 291 286 279 278 283 293 294 296 295 295 294 295 295 295 296 297 298 299 300 300 300 300 301 302 304 309 316 323 325 326 327 326 327 325 326 324 321 319 319 315 312 310 307 306 304 300
293 291 292 286 283 285 284 283 294 293 295 294 293 295 295 294 295 296 298 298 298 299 299 300 300 301 302 302 304 307 312 316 319 324 325 326 323 318 317 317 315 312 310 308 306 303 303 300 297

GFSSGP_sfc_thetae_129.txt.gz
Theta_e
322 314 314 312 301 298 294 297 301 302 303 308 313 314 315 317 315 308 329 335 333 337 344 345 347 346 345 348 348 348 347 348 346 345 345 345 346 345 342 342 340 337 338 337 337 338 339 339 339
319 316 313 307 298 294 293 298 302 306 310 313 313 314 316 314 323 323 330 337 341 342 342 343 344 346 345 348 348 347 347 347 345 344 343 345 344 344 342 341 339 337 337 337 337 338 338 337 338
319 316 306 302 298 291 293 302 305 307 310 310 308 317 317 317 323 325 336 339 339 338 341 341 343 345 345 346 345 345 344 345 344 342 343 344 344 343 344 341 337 337 336 336 337 337 336 337 336
313 311 307 300 297 296 298 304 305 304 306 309 313 314 320 326 325 329 338 338 338 339 340 341 344 345 344 342 342 339 341 342 341 341 338 343 343 344 343 341 338 336 335 335 336 335 334 333 333
313 306 299 297 298 295 302 308 307 304 303 306 310 310 317 326 331 335 336 336 334 335 338 340 342 344 343 342 337 338 340 340 339 340 342 341 340 341 341 340 337 335 335 334 334 333 330 330 331
308 305 297 295 301 297 302 308 307 304 305 306 314 315 317 328 331 333 335 333 334 333 336 338 335 338 340 341 339 339 338 339 338 339 339 339 339 340 340 339 337 335 334 333 331 330 328 329 330
307 302 298 298 300 298 303 308 305 305 305 303 318 313 319 326 330 332 333 333 334 333 333 333 335 336 334 335 335 335 337 335 334 338 337 335 336 337 338 338 336 335 334 332 331 330 329 329 329
308 305 298 298 298 297 305 305 306 306 306 312 317 312 316 326 330 331 333 333 332 331 331 331 332 334 332 331 330 331 332 334 334 333 330 329 329 332 333 332 335 334 333 332 330 330 329 328 328
314 302 300 298 300 300 305 302 305 308 309 310 315 317 322 328 329 328 327 328 330 330 329 330 330 331 331 330 327 328 329 330 329 328 326 324 324 327 328 329 332 333 332 330 329 329 327 327 325
307 299 301 305 306 302 306 303 304 305 306 307 318 324 327 327 325 325 323 324 325 326 327 329 327 329 331 332 328 326 327 326 325 324 324 324 324 326 327 324 327 329 328 329 329 328 327 323 319
305 301 308 305 304 305 305 301 304 303 301 307 315 321 323 323 323 324 323 324 324 327 329 330 327 327 327 329 327 325 324 324 324 324 323 324 323 322 322 320 321 319 320 320 322 321 320 319 318
304 308 309 306 305 302 304 303 301 300 301 306 323 324 323 324 324 324 322 324 323 324 327 330 330 326 323 327 326 326 325 324 324 325 325 321 320 319 318 318 318 318 319 318 318 317 317 316 317
307 310 308 303 303 302 303 300 300 298 302 311 325 325 322 323 324 323 324 324 324 323 324 329 330 330 326 324 325 326 324 324 324 325 326 323 321 320 319 319 319 319 319 317 316 317 316 316 316
311 311 303 302 303 303 302 301 302 303 301 309 322 322 321 322 324 323 324 324 322 324 324 326 329 330 329 326 325 325 324 323 323 323 324 326 324 323 321 319 318 317 317 318 317 316 316 316 316
310 304 301 301 301 301 302 299 300 303 302 303 307 317 322 322 324 325 325 325 323 325 326 325 328 330 330 327 326 326 324 324 321 322 324 324 325 324 322 320 318 318 317 317 318 318 317 316 316
305 303 295 302 301 301 302 296 303 306 304 302 302 303 317 320 324 326 327 325 324 323 325 326 329 330 329 329 328 327 326 322 322 322 322 322 323 324 321 320 319 319 318 319 318 318 316 316 316
303 297 295 301 302 300 300 297 305 308 304 304 303 302 306 314 318 324 325 324 323 323 325 325 326 328 329 329 329 328 326 325 324 322 323 321 322 324 321 320 320 320 320 319 319 318 317 316 315
295 297 298 299 299 298 295 298 302 301 304 304 303 303 303 306 315 320 323 323 324 324 325 325 326 326 328 329 327 325 325 325 325 324 323 323 323 323 322 321 320 320 319 319 319 317 317 317 316
301 299 298 302 303 299 296 295 299 302 300 300 300 302 302 304 312 317 322 323 323 323 323 323 324 325 325 325 324 324 324 325 326 326 325 324 324 324 323 322 321 319 319 319 319 318 317 316 315
303 300 299 298 299 298 296 296 299 301 301 301 301 301 302 303 303 312 316 320 321 322 322 322 323 324 325 326 326 326 325 324 326 326 325 325 325 325 324 323 322 320 318 318 319 321 317 318 315
300 300 298 297 296 295 293 291 295 299 302 302 304 304 303 304 305 304 312 317 319 320 322 324 323 324 325 326 326 323 322 321 321 322 324 325 325 325 325 324 323 321 320 319 317 316 315 313 313
296 302 298 294 291 288 292 284 289 294 296 299 303 301 303 304 306 306 306 314 318 321 323 325 326 324 324 325 324 323 322 320 323 323 325 325 326 325 326 325 324 322 320 318 317 317 316 313 311
299 302 297 295 290 288 287 285 288 292 292 295 298 301 303 303 306 307 307 309 316 320 321 324 326 326 325 324 324 323 322 323 323 324 324 324 326 326 326 325 324 322 320 319 318 315 314 315 313
303 296 294 293 289 283 287 287 285 290 294 295 296 300 301 301 301 304 306 307 310 315 319 322 323 325 326 325 324 323 322 322 321 321 322 324 325 326 326 326 325 324 322 320 318 318 317 317 318
300 294 282 283 283 281 287 286 289 293 295 295 294 296 298 298 298 299 300 302 304 311 315 318 321 323 325 326 325 324 323 323 322 322 323 324 324 325 325 326 325 324 323 322 321 319 318 317 317
294 293 282 277 279 279 283 282 287 297 300 299 299 297 295 296 296 296 297 298 301 303 312 317 318 322 322 324 326 326 325 325 324 324 326 326 326 326 327 325 326 325 324 323 322 320 318 317 317
293 290 291 282 274 277 281 286 292 295 294 294 295 295 295 294 296 295 299 296 296 299 303 313 315 318 320 321 324 326 327 326 326 326 327 327 328 328 327 326 325 325 324 323 322 321 318 317 317
295 296 288 286 276 273 280 281 284 289 293 294 294 294 294 294 294 295 295 296 296 296 298 300 307 313 315 316 318 323 325 327 328 328 327 327 327 327 327 325 324 324 323 323 321 321 319 315 314
289 291 289 288 283 278 276 281 290 292 295 295 294 294 293 293 294 295 296 296 297 297 298 298 298 299 300 303 307 312 316 321 323 326 327 327 327 325 325 325 324 322 321 321 321 318 312 312 308
292 293 293 287 283 284 283 282 292 294 295 294 291 292 292 294 295 294 295 296 296 297 297 298 298 298 299 299 300 301 304 310 316 322 325 325 324 322 324 325 324 322 321 319 318 311 310 309 304